• In Russia
  • List of Countries
  • For 7 days
  • Water Temperature
  • Satellite Maps
  • Weather Map
  • Weather Widgets
  • user-avatar
    Login

    Hourly Weather Kaprun

    Today, 22 February, Friday

    Time Temperature Precipitation Wind Pressure Humidity
    00:00 -6°C° 0.1 mm 2 mps 599 mmHg 91%
    01:00 -4°C° 0 mm 2 mps 600 mmHg 93%
    02:00 -4°C° 0.4 mm 2 mps 600 mmHg 94%
    03:00 -5°C° 0.4 mm 3 mps 600 mmHg 94%
    04:00 -5°C° 0.4 mm 3 mps 599 mmHg 94%
    05:00 -5°C° 1 mm 3 mps 600 mmHg 94%
    06:00 -5°C° 1 mm 3 mps 600 mmHg 94%
    07:00 -5°C° 1 mm 3 mps 600 mmHg 95%
    08:00 -4°C° 1.6 mm 3 mps 600 mmHg 95%
    09:00 -4°C° 1.6 mm 4 mps 600 mmHg 95%
    10:00 -4°C° 1.6 mm 4 mps 600 mmHg 96%
    11:00 -4°C° 0.8 mm 4 mps 600 mmHg 96%
    12:00 -4°C° 0.8 mm 4 mps 600 mmHg 96%
    13:00 -4°C° 0.8 mm 4 mps 600 mmHg 96%
    14:00 -4°C° 0.3 mm 4 mps 601 mmHg 95%
    15:00 -5°C° 0.3 mm 3 mps 601 mmHg 95%
    16:00 -5°C° 0.3 mm 3 mps 601 mmHg 95%
    17:00 -5°C° 0.1 mm 3 mps 601 mmHg 95%
    18:00 -6°C° 0.1 mm 3 mps 601 mmHg 96%
    19:00 -7°C° 0.1 mm 3 mps 601 mmHg 96%
    20:00 -7°C° 0.1 mm 3 mps 602 mmHg 96%
    21:00 -7°C° 0.1 mm 3 mps 602 mmHg 96%
    22:00 -6°C° 0.1 mm 2 mps 603 mmHg 96%
    23:00 -7°C° 0 mm 2 mps 603 mmHg 96%

    Tomorrow, 23 February, Saturday

    Time Temperature Precipitation Wind Pressure Humidity
    00:00 -7°C° 0 mm 2 mps 603 mmHg 96%
    01:00 -8°C° 0 mm 2 mps 603 mmHg 96%
    02:00 -9°C° 0 mm 2 mps 602 mmHg 94%
    03:00 -10°C° 0 mm 2 mps 602 mmHg 92%
    04:00 -12°C° 0 mm 2 mps 601 mmHg 90%
    05:00 -12°C° 0 mm 2 mps 601 mmHg 86%
    06:00 -13°C° 0 mm 2 mps 601 mmHg 82%
    07:00 -13°C° 0 mm 2 mps 601 mmHg 77%
    08:00 -10°C° 0 mm 2 mps 602 mmHg 73%
    09:00 -8°C° 0 mm 2 mps 603 mmHg 68%
    10:00 -6°C° 0 mm 2 mps 604 mmHg 64%
    11:00 -5°C° 0 mm 2 mps 604 mmHg 67%
    12:00 -5°C° 0 mm 2 mps 604 mmHg 70%
    13:00 -4°C° 0 mm 2 mps 604 mmHg 74%
    14:00 -4°C° 0 mm 2 mps 604 mmHg 76%
    15:00 -4°C° 0 mm 2 mps 603 mmHg 78%
    16:00 -5°C° 0 mm 2 mps 603 mmHg 80%
    17:00 -7°C° 0 mm 2 mps 602 mmHg 77%
    18:00 -9°C° 0 mm 2 mps 602 mmHg 74%
    19:00 -12°C° 0 mm 2 mps 601 mmHg 71%
    20:00 -10°C° 0 mm 2 mps 602 mmHg 65%
    21:00 -10°C° 0 mm 2 mps 602 mmHg 59%
    22:00 -10°C° 0 mm 2 mps 602 mmHg 53%
    23:00 -10°C° 0 mm 2 mps 602 mmHg 52%

    Day after tomorrow, 24 February, Sunday

    Time Temperature Precipitation Wind Pressure Humidity
    00:00 -10°C° 0 mm 2 mps 602 mmHg 50%
    01:00 -9°C° 0 mm 2 mps 602 mmHg 49%
    02:00 -9°C° 0 mm 2 mps 602 mmHg 49%
    03:00 -9°C° 0 mm 2 mps 602 mmHg 50%
    04:00 -9°C° 0 mm 2 mps 602 mmHg 50%
    05:00 -9°C° 0 mm 2 mps 602 mmHg 51%
    06:00 -9°C° 0 mm 2 mps 602 mmHg 52%
    07:00 -8°C° 0 mm 2 mps 602 mmHg 52%
    08:00 -4°C° 0 mm 1 mps 603 mmHg 62%
    09:00 -2°C° 0 mm 1 mps 604 mmHg 71%
    10:00 0°C° 0 mm 1 mps 606 mmHg 80%
    11:00 0°C° 0 mm 1 mps 605 mmHg 85%
    12:00 +1°C° 0 mm 1 mps 605 mmHg 89%
    13:00 +1°C° 0 mm 1 mps 605 mmHg 94%
    14:00 +1°C° 0 mm 1 mps 605 mmHg 94%
    15:00 +1°C° 0 mm 1 mps 605 mmHg 94%
    16:00 0°C° 0 mm 1 mps 605 mmHg 94%
    17:00 -1°C° 0 mm 1 mps 604 mmHg 87%
    18:00 -3°C° 0 mm 1 mps 604 mmHg 81%
    19:00 -4°C° 0 mm 1 mps 604 mmHg 74%
    20:00 -4°C° 0 mm 1 mps 604 mmHg 73%
    21:00 -4°C° 0 mm 1 mps 604 mmHg 72%
    22:00 -6°C° 0 mm 2 mps 604 mmHg 70%
    23:00 -6°C° 0 mm 2 mps 604 mmHg 70%

    25 February, Monday

    Time Temperature Precipitation Wind Pressure Humidity
    00:00 -6°C° 0 mm 2 mps 605 mmHg 70%
    01:00 -6°C° 0 mm 2 mps 605 mmHg 70%
    02:00 -6°C° 0 mm 2 mps 604 mmHg 69%
    03:00 -4°C° 0 mm 1 mps 604 mmHg 67%
    04:00 -4°C° 0 mm 1 mps 604 mmHg 66%
    05:00 -4°C° 0 mm 1 mps 604 mmHg 65%
    06:00 -6°C° 0 mm 2 mps 604 mmHg 64%
    07:00 -6°C° 0 mm 2 mps 604 mmHg 63%
    08:00 -2°C° 0 mm 1 mps 605 mmHg 70%
    09:00 -1°C° 0 mm 1 mps 606 mmHg 78%
    10:00 +1°C° 0 mm 1 mps 607 mmHg 86%
    11:00 +2°C° 0 mm 1 mps 606 mmHg 90%
    12:00 +2°C° 0 mm 1 mps 606 mmHg 94%
    13:00 +2°C° 0 mm 1 mps 606 mmHg 98%
    14:00 +2°C° 0 mm 1 mps 606 mmHg 98%
    15:00 +1°C° 0 mm 1 mps 605 mmHg 98%
    16:00 +1°C° 0 mm 1 mps 605 mmHg 98%
    17:00 -1°C° 0 mm 1 mps 604 mmHg 95%
    18:00 -2°C° 0 mm 1 mps 604 mmHg 91%
    19:00 -3°C° 0 mm 1 mps 604 mmHg 87%
    20:00 -3°C° 0 mm 1 mps 604 mmHg 85%
    21:00 -3°C° 0 mm 1 mps 604 mmHg 84%
    22:00 -3°C° 0 mm 1 mps 604 mmHg 83%
    23:00 -4°C° 0 mm 1 mps 604 mmHg 81%

    26 February, Tuesday

    Time Temperature Precipitation Wind Pressure Humidity
    00:00 -4°C° 0 mm 1 mps 604 mmHg 79%
    01:00 -4°C° 0 mm 1 mps 603 mmHg 77%
    02:00 -4°C° 0 mm 1 mps 603 mmHg 73%
    03:00 -6°C° 0 mm 2 mps 603 mmHg 69%
    04:00 -6°C° 0 mm 2 mps 603 mmHg 65%
    05:00 -6°C° 0 mm 2 mps 602 mmHg 63%
    06:00 -6°C° 0 mm 2 mps 602 mmHg 61%
    07:00 -6°C° 0 mm 2 mps 602 mmHg 59%
    08:00 -4°C° 0 mm 2 mps 603 mmHg 65%
    09:00 0°C° 0 mm 1 mps 604 mmHg 71%
    10:00 +1°C° 0 mm 1 mps 604 mmHg 78%
    11:00 +2°C° 0 mm 1 mps 604 mmHg 80%
    12:00 +1°C° 0 mm 2 mps 604 mmHg 83%
    13:00 +1°C° 0 mm 2 mps 604 mmHg 86%
    14:00 +1°C° 0 mm 2 mps 604 mmHg 86%
    15:00 +1°C° 0 mm 2 mps 603 mmHg 86%
    16:00 +1°C° 0 mm 2 mps 603 mmHg 86%
    17:00 -2°C° 0 mm 2 mps 602 mmHg 82%
    18:00 -3°C° 0 mm 2 mps 602 mmHg 78%
    19:00 -5°C° 0 mm 2 mps 602 mmHg 74%
    20:00 -4°C° 0 mm 2 mps 602 mmHg 73%
    21:00 -4°C° 0 mm 2 mps 602 mmHg 72%
    22:00 -4°C° 0 mm 2 mps 602 mmHg 71%
    23:00 -4°C° 0 mm 2 mps 602 mmHg 72%

    27 February, Wednesday

    Time Temperature Precipitation Wind Pressure Humidity
    00:00 -4°C° 0 mm 2 mps 602 mmHg 73%
    01:00 -2°C° 0 mm 1 mps 602 mmHg 74%
    02:00 -4°C° 0 mm 2 mps 602 mmHg 75%
    03:00 -5°C° 0 mm 2 mps 601 mmHg 76%
    04:00 -5°C° 0 mm 2 mps 601 mmHg 77%
    05:00 -5°C° 0 mm 2 mps 601 mmHg 79%
    06:00 -5°C° 0 mm 2 mps 601 mmHg 80%
    07:00 -5°C° 0 mm 2 mps 601 mmHg 82%
    08:00 -1°C° 0 mm 1 mps 602 mmHg 85%
    09:00 0°C° 0 mm 1 mps 602 mmHg 88%
    10:00 +2°C° 0 mm 1 mps 603 mmHg 91%
    11:00 +2°C° 0 mm 1 mps 602 mmHg 92%
    12:00 +3°C° 0 mm 1 mps 602 mmHg 93%
    13:00 +3°C° 0 mm 1 mps 602 mmHg 94%
    14:00 +3°C° 0 mm 1 mps 602 mmHg 94%
    15:00 +2°C° 0 mm 1 mps 601 mmHg 95%
    16:00 +2°C° 0 mm 1 mps 601 mmHg 95%
    17:00 +1°C° 0 mm 1 mps 600 mmHg 87%
    18:00 0°C° 0 mm 1 mps 600 mmHg 79%
    19:00 -2°C° 0 mm 1 mps 599 mmHg 71%
    20:00 -4°C° 0 mm 2 mps 599 mmHg 65%
    21:00 -4°C° 0 mm 2 mps 599 mmHg 60%
    22:00 -4°C° 0 mm 2 mps 599 mmHg 55%
    23:00 -4°C° 0 mm 2 mps 599 mmHg 54%
    Show more